Wetterdaten: Mittwoch, 08.07.2015
Datum Zeit Auen-Temp. Temp gefhlt Luftfeuchte Luftdruck Regen Wind Richtung Richtung Taupunkt Windben
08.07.2015 00:00 17,0 C 16,8 C 79 % 1006,8 hPa 0,0 mm 0,0 km/h (0 Bft) O-SO 112 13,3 C 0,0 km/h (0 Bft)
08.07.2015 00:05 17,0 C 16,7 C 82 % 1006,8 hPa 0,0 mm 0,0 km/h (0 Bft) O-NO 67 13,9 C 0,0 km/h (0 Bft)
08.07.2015 00:10 17,0 C 16,7 C 82 % 1007,1 hPa 0,0 mm 0,0 km/h (0 Bft) O 90 13,9 C 0,0 km/h (0 Bft)
08.07.2015 00:15 16,8 C 16,6 C 82 % 1007,1 hPa 0,0 mm 0,0 km/h (0 Bft) NO 45 13,7 C 0,0 km/h (0 Bft)
08.07.2015 00:20 16,8 C 16,6 C 83 % 1007,1 hPa 0,0 mm 1,6 km/h (1 Bft) S 180 13,9 C 8,3 km/h (2 Bft)
08.07.2015 00:25 17,0 C 16,7 C 83 % 1007,1 hPa 0,0 mm 2,1 km/h (1 Bft) W-NW 292 14,1 C 0,0 km/h (0 Bft)
08.07.2015 00:30 17,2 C 16,9 C 80 % 1007,1 hPa 0,0 mm 2,3 km/h (1 Bft) S 180 13,7 C 7,8 km/h (2 Bft)
08.07.2015 00:35 17,5 C 17,2 C 81 % 1007,1 hPa 0,0 mm 2,6 km/h (1 Bft) NW 315 14,2 C 0,0 km/h (0 Bft)
08.07.2015 00:40 18,2 C 18,0 C 78 % 1007,1 hPa 0,0 mm 4,7 km/h (1 Bft) S-SO 157 14,3 C 14,5 km/h (3 Bft)
08.07.2015 00:45 18,7 C 18,5 C 76 % 1007,1 hPa 0,0 mm 6,0 km/h (2 Bft) SW 225 14,4 C 8,0 km/h (2 Bft)
08.07.2015 00:50 18,0 C 18,8 C 76 % 1007,2 hPa 0,0 mm 6,2 km/h (2 Bft) S 180 13,7 C 6,7 km/h (2 Bft)
08.07.2015 00:55 18,3 C 19,1 C 76 % 1007,2 hPa 0,0 mm 5,4 km/h (1 Bft) W-SW 247 14,0 C 6,7 km/h (2 Bft)
08.07.2015 01:00 18,9 C 19,5 C 73 % 1007,2 hPa 0,0 mm 5,4 km/h (1 Bft) SW 225 13,9 C 7,5 km/h (2 Bft)
08.07.2015 01:05 19,2 C 19,7 C 72 % 1007,2 hPa 0,0 mm 6,2 km/h (2 Bft) S 180 14,0 C 12,7 km/h (3 Bft)
08.07.2015 01:10 19,8 C 20,1 C 69 % 1007,2 hPa 0,0 mm 7,0 km/h (2 Bft) SW 225 13,9 C 16,6 km/h (3 Bft)
08.07.2015 01:15 20,1 C 20,5 C 68 % 1007,2 hPa 0,0 mm 7,5 km/h (2 Bft) SO 135 14,0 C 2,8 km/h (1 Bft)
08.07.2015 01:20 20,5 C 21,0 C 67 % 1007,2 hPa 0,0 mm 9,1 km/h (2 Bft) S-SW 202 14,2 C 17,9 km/h (3 Bft)
08.07.2015 01:25 20,7 C 21,2 C 66 % 1007,2 hPa 0,0 mm 9,8 km/h (2 Bft) S-SO 157 14,1 C 15,8 km/h (3 Bft)
08.07.2015 01:30 20,9 C 21,6 C 65 % 1007,0 hPa 0,0 mm 9,8 km/h (2 Bft) SO 135 14,1 C 8,3 km/h (2 Bft)
08.07.2015 01:31 20,9 C 21,7 C 65 % 1007,0 hPa 0,0 mm 9,6 km/h (2 Bft) S 180 14,1 C 7,0 km/h (2 Bft)
08.07.2015 01:33 20,9 C 21,7 C 65 % 1007,0 hPa 0,0 mm 9,6 km/h (2 Bft) S 180 14,1 C 7,0 km/h (2 Bft)
08.07.2015 01:35 20,9 C 21,7 C 65 % 1007,0 hPa 0,0 mm 9,6 km/h (2 Bft) S 180 14,1 C 7,0 km/h (2 Bft)
08.07.2015 01:40 20,0 C 21,5 C 67 % 1007,0 hPa 0,0 mm 5,4 km/h (1 Bft) W-SW 247 13,7 C 0,0 km/h (0 Bft)
08.07.2015 01:45 19,7 C 21,2 C 69 % 1007,0 hPa 0,0 mm 2,6 km/h (1 Bft) S 180 13,8 C 2,6 km/h (1 Bft)
08.07.2015 01:50 20,5 C 21,3 C 68 % 1007,2 hPa 0,0 mm 1,8 km/h (1 Bft) S-SW 202 14,4 C 0,0 km/h (0 Bft)
08.07.2015 01:55 21,0 C 21,5 C 67 % 1007,2 hPa 0,0 mm 2,6 km/h (1 Bft) W-NW 292 14,6 C 4,9 km/h (1 Bft)
08.07.2015 02:00 21,2 C 21,7 C 66 % 1007,2 hPa 0,0 mm 3,1 km/h (1 Bft) S-SW 202 14,6 C 7,8 km/h (2 Bft)
08.07.2015 02:05 21,4 C 21,9 C 65 % 1007,2 hPa 0,0 mm 4,1 km/h (1 Bft) W 270 14,5 C 11,7 km/h (2 Bft)
08.07.2015 02:10 22,0 C 22,3 C 63 % 1007,9 hPa 0,0 mm 7,8 km/h (2 Bft) W 270 14,6 C 30,8 km/h (5 Bft)
08.07.2015 02:15 21,8 C 22,4 C 63 % 1007,9 hPa 0,0 mm 9,6 km/h (2 Bft) W-NW 292 14,4 C 8,0 km/h (2 Bft)
08.07.2015 02:20 21,6 C 22,3 C 62 % 1007,9 hPa 0,0 mm 9,3 km/h (2 Bft) NW 315 14,0 C 3,9 km/h (1 Bft)
08.07.2015 02:25 21,2 C 22,0 C 63 % 1007,9 hPa 0,0 mm 6,7 km/h (2 Bft) W 270 13,9 C 8,5 km/h (2 Bft)
08.07.2015 02:30 21,2 C 21,7 C 63 % 1008,3 hPa 0,0 mm 3,1 km/h (1 Bft) W-NW 292 13,9 C 4,9 km/h (1 Bft)
08.07.2015 02:35 21,0 C 21,5 C 64 % 1008,3 hPa 0,0 mm 3,6 km/h (1 Bft) W-SW 247 13,9 C 3,1 km/h (1 Bft)
08.07.2015 02:40 21,1 C 21,4 C 64 % 1008,3 hPa 0,0 mm 7,5 km/h (2 Bft) SW 225 14,0 C 14,8 km/h (3 Bft)
08.07.2015 02:45 20,9 C 21,4 C 65 % 1008,3 hPa 0,0 mm 8,0 km/h (2 Bft) S-SW 202 14,1 C 0,0 km/h (0 Bft)
08.07.2015 02:50 20,7 C 21,1 C 66 % 1009,1 hPa 0,0 mm 5,7 km/h (1 Bft) S-SW 202 14,1 C 4,9 km/h (1 Bft)
08.07.2015 02:55 20,6 C 21,0 C 67 % 1009,1 hPa 0,0 mm 4,9 km/h (1 Bft) S 180 14,3 C 7,0 km/h (2 Bft)
08.07.2015 03:00 20,1 C 20,2 C 69 % 1009,1 hPa 0,7 mm 4,1 km/h (1 Bft) S-SO 157 14,2 C 2,6 km/h (1 Bft)
08.07.2015 03:05 19,1 C 19,0 C 74 % 1009,1 hPa 0,0 mm 3,1 km/h (1 Bft) S-SW 202 14,4 C 7,8 km/h (2 Bft)
08.07.2015 03:10 18,3 C 18,2 C 77 % 1009,6 hPa 2,7 mm 2,1 km/h (1 Bft) SO 135 14,2 C 0,0 km/h (0 Bft)
08.07.2015 03:15 18,0 C 17,9 C 78 % 1009,6 hPa 0,7 mm 2,6 km/h (1 Bft) SW 225 14,1 C 7,3 km/h (2 Bft)
08.07.2015 03:20 18,0 C 17,8 C 79 % 1009,6 hPa 0,7 mm 1,6 km/h (1 Bft) SW 225 14,3 C 3,6 km/h (1 Bft)
08.07.2015 03:25 17,9 C 17,7 C 81 % 1009,6 hPa 0,0 mm 2,1 km/h (1 Bft) W-NW 292 14,6 C 6,0 km/h (2 Bft)
08.07.2015 03:30 17,7 C 17,5 C 82 % 1009,3 hPa 0,7 mm 3,1 km/h (1 Bft) S-SO 157 14,6 C 0,0 km/h (0 Bft)
08.07.2015 03:35 17,6 C 17,4 C 84 % 1009,3 hPa 0,7 mm 2,3 km/h (1 Bft) S-SW 202 14,9 C 0,0 km/h (0 Bft)
08.07.2015 03:40 17,6 C 17,4 C 84 % 1009,3 hPa 0,0 mm 1,0 km/h (0 Bft) NO 45 14,9 C 2,8 km/h (1 Bft)
08.07.2015 03:45 17,6 C 17,4 C 84 % 1009,3 hPa 0,0 mm 1,0 km/h (0 Bft) S 180 14,9 C 4,9 km/h (1 Bft)
08.07.2015 03:50 17,5 C 17,3 C 85 % 1009,2 hPa 1,4 mm 2,1 km/h (1 Bft) S 180 14,9 C 0,0 km/h (0 Bft)
08.07.2015 03:55 17,5 C 17,3 C 85 % 1009,2 hPa 0,7 mm 2,3 km/h (1 Bft) W-SW 247 14,9 C 4,7 km/h (1 Bft)
08.07.2015 04:00 17,6 C 17,4 C 85 % 1009,2 hPa 0,7 mm 1,8 km/h (1 Bft) O-SO 112 15,0 C 0,0 km/h (0 Bft)
08.07.2015 04:05 17,6 C 17,5 C 85 % 1009,2 hPa 0,0 mm 2,3 km/h (1 Bft) W-SW 247 15,0 C 4,4 km/h (1 Bft)
08.07.2015 04:10 17,6 C 17,5 C 86 % 1009,2 hPa 0,0 mm 1,3 km/h (1 Bft) SO 135 15,2 C 0,0 km/h (0 Bft)
08.07.2015 04:15 17,5 C 17,4 C 86 % 1009,2 hPa 0,7 mm 1,0 km/h (0 Bft) O-NO 67 15,1 C 0,0 km/h (0 Bft)
08.07.2015 04:20 17,5 C 17,4 C 88 % 1009,2 hPa 0,0 mm 0,8 km/h (0 Bft) SO 135 15,5 C 0,0 km/h (0 Bft)
08.07.2015 04:25 17,5 C 17,4 C 88 % 1009,2 hPa 0,0 mm 1,3 km/h (1 Bft) SW 225 15,5 C 0,0 km/h (0 Bft)
08.07.2015 04:30 17,5 C 17,4 C 88 % 1008,7 hPa 0,0 mm 0,8 km/h (0 Bft) O 90 15,5 C 2,6 km/h (1 Bft)
08.07.2015 04:35 17,5 C 17,4 C 88 % 1008,7 hPa 0,0 mm 0,3 km/h (0 Bft) NW 315 15,5 C 0,0 km/h (0 Bft)
08.07.2015 04:40 17,5 C 17,4 C 88 % 1008,7 hPa 0,0 mm 0,3 km/h (0 Bft) SW 225 15,5 C 0,0 km/h (0 Bft)
08.07.2015 04:45 17,5 C 17,4 C 88 % 1008,7 hPa 0,0 mm 0,5 km/h (0 Bft) W-NW 292 15,5 C 4,9 km/h (1 Bft)
08.07.2015 04:50 17,4 C 17,3 C 87 % 1009,2 hPa 0,0 mm 2,1 km/h (1 Bft) SW 225 15,2 C 3,4 km/h (1 Bft)
08.07.2015 04:55 17,3 C 17,2 C 87 % 1009,2 hPa 0,0 mm 3,1 km/h (1 Bft) S-SW 202 15,1 C 5,7 km/h (1 Bft)
08.07.2015 05:00 17,3 C 17,1 C 87 % 1009,2 hPa 0,0 mm 3,9 km/h (1 Bft) S 180 15,1 C 6,2 km/h (2 Bft)
08.07.2015 05:05 17,3 C 17,1 C 87 % 1009,2 hPa 0,0 mm 4,7 km/h (1 Bft) SW 225 15,1 C 15,0 km/h (3 Bft)
08.07.2015 05:10 17,2 C 17,0 C 87 % 1009,1 hPa 0,0 mm 4,9 km/h (1 Bft) S 180 15,0 C 4,9 km/h (1 Bft)
08.07.2015 05:15 17,2 C 17,0 C 87 % 1009,1 hPa 0,0 mm 4,4 km/h (1 Bft) S 180 15,0 C 10,1 km/h (2 Bft)
08.07.2015 05:20 17,2 C 17,0 C 87 % 1009,1 hPa 0,0 mm 4,7 km/h (1 Bft) S 180 15,0 C 8,5 km/h (2 Bft)
08.07.2015 05:25 17,2 C 17,0 C 86 % 1009,1 hPa 0,0 mm 5,4 km/h (1 Bft) W-SW 247 14,8 C 3,9 km/h (1 Bft)
08.07.2015 05:30 17,2 C 16,9 C 86 % 1008,9 hPa 0,0 mm 4,4 km/h (1 Bft) W-SW 247 14,8 C 0,0 km/h (0 Bft)
08.07.2015 05:35 17,1 C 16,9 C 86 % 1008,9 hPa 0,0 mm 3,6 km/h (1 Bft) N 360 14,7 C 6,2 km/h (2 Bft)
08.07.2015 05:40 17,1 C 16,9 C 86 % 1008,9 hPa 0,0 mm 4,7 km/h (1 Bft) S 180 14,7 C 6,0 km/h (2 Bft)
08.07.2015 05:45 17,1 C 16,8 C 85 % 1008,9 hPa 0,0 mm 4,4 km/h (1 Bft) W-SW 247 14,6 C 0,0 km/h (0 Bft)
08.07.2015 05:50 17,0 C 16,8 C 85 % 1009,1 hPa 0,0 mm 1,6 km/h (1 Bft) SW 225 14,5 C 0,0 km/h (0 Bft)
08.07.2015 05:55 17,1 C 16,8 C 85 % 1009,1 hPa 0,0 mm 1,3 km/h (1 Bft) S 180 14,6 C 4,4 km/h (1 Bft)
08.07.2015 06:00 17,1 C 16,8 C 85 % 1009,1 hPa 0,0 mm 3,6 km/h (1 Bft) W-SW 247 14,6 C 5,2 km/h (1 Bft)
08.07.2015 06:05 17,0 C 16,7 C 85 % 1009,1 hPa 0,0 mm 4,9 km/h (1 Bft) S 180 14,5 C 7,0 km/h (2 Bft)
08.07.2015 06:10 17,0 C 16,7 C 85 % 1009,1 hPa 0,0 mm 5,2 km/h (1 Bft) W-SW 247 14,5 C 4,7 km/h (1 Bft)
08.07.2015 06:15 16,8 C 16,6 C 86 % 1009,1 hPa 0,7 mm 4,7 km/h (1 Bft) SW 225 14,4 C 7,3 km/h (2 Bft)
08.07.2015 06:20 16,8 C 16,5 C 86 % 1009,1 hPa 0,0 mm 4,4 km/h (1 Bft) S-SW 202 14,4 C 4,7 km/h (1 Bft)
08.07.2015 06:25 16,7 C 16,5 C 85 % 1009,1 hPa 0,0 mm 5,2 km/h (1 Bft) S-SW 202 14,2 C 10,1 km/h (2 Bft)
08.07.2015 06:30 16,6 C 16,3 C 85 % 1009,1 hPa 0,0 mm 4,4 km/h (1 Bft) S 180 14,1 C 4,7 km/h (1 Bft)
08.07.2015 06:35 16,6 C 16,3 C 85 % 1009,1 hPa 0,0 mm 4,4 km/h (1 Bft) S 180 14,1 C 4,1 km/h (1 Bft)
08.07.2015 06:40 16,5 C 16,2 C 85 % 1009,1 hPa 0,0 mm 3,6 km/h (1 Bft) SO 135 14,0 C 2,6 km/h (1 Bft)
08.07.2015 06:45 16,3 C 16,0 C 86 % 1009,1 hPa 0,0 mm 2,3 km/h (1 Bft) S-SW 202 14,0 C 0,0 km/h (0 Bft)
08.07.2015 06:50 16,1 C 15,9 C 86 % 1009,3 hPa 0,0 mm 0,3 km/h (0 Bft) NW 315 13,8 C 0,0 km/h (0 Bft)
08.07.2015 06:55 16,1 C 15,9 C 87 % 1009,3 hPa 0,0 mm 0,3 km/h (0 Bft) S-SO 157 13,9 C 0,0 km/h (0 Bft)
08.07.2015 07:00 16,0 C 15,8 C 87 % 1009,3 hPa 0,0 mm 0,3 km/h (0 Bft) S-SO 157 13,8 C 0,0 km/h (0 Bft)
08.07.2015 07:05 16,0 C 15,8 C 88 % 1009,3 hPa 0,0 mm 0,8 km/h (0 Bft) SO 135 14,0 C 6,2 km/h (2 Bft)
08.07.2015 07:10 16,0 C 15,8 C 88 % 1008,8 hPa 0,0 mm 2,6 km/h (1 Bft) SO 135 14,0 C 3,1 km/h (1 Bft)
08.07.2015 07:15 15,9 C 15,7 C 88 % 1008,8 hPa 0,0 mm 2,3 km/h (1 Bft) S-SO 157 13,9 C 0,0 km/h (0 Bft)
08.07.2015 07:20 15,8 C 15,7 C 89 % 1008,8 hPa 0,0 mm 0,8 km/h (0 Bft) S 180 14,0 C 2,6 km/h (1 Bft)
08.07.2015 07:25 15,9 C 15,8 C 84 % 1008,8 hPa 0,0 mm 0,3 km/h (0 Bft) SW 225 13,2 C 0,0 km/h (0 Bft)
08.07.2015 07:30 15,9 C 15,8 C 84 % 1008,8 hPa 0,0 mm 0,3 km/h (0 Bft) SW 225 13,2 C 0,0 km/h (0 Bft)
08.07.2015 07:31 15,9 C 15,9 C 84 % 1008,8 hPa 0,0 mm 0,3 km/h (0 Bft) S 180 13,2 C 3,4 km/h (1 Bft)
08.07.2015 07:34 15,9 C 15,9 C 84 % 1008,8 hPa 0,0 mm 0,3 km/h (0 Bft) S 180 13,2 C 3,4 km/h (1 Bft)
08.07.2015 07:40 16,1 C 15,9 C 83 % 1008,8 hPa 0,0 mm 2,1 km/h (1 Bft) S-SO 157 13,2 C 7,8 km/h (2 Bft)
08.07.2015 07:45 16,2 C 16,1 C 83 % 1008,8 hPa 0,0 mm 4,4 km/h (1 Bft) W-SW 247 13,3 C 7,8 km/h (2 Bft)
08.07.2015 07:50 16,5 C 16,3 C 83 % 1008,9 hPa 0,0 mm 5,2 km/h (1 Bft) SW 225 13,6 C 3,6 km/h (1 Bft)
08.07.2015 07:55 16,7 C 16,4 C 85 % 1008,9 hPa 0,0 mm 3,4 km/h (1 Bft) SW 225 14,2 C 0,0 km/h (0 Bft)
08.07.2015 08:00 16,9 C 16,6 C 83 % 1008,9 hPa 0,0 mm 4,4 km/h (1 Bft) SW 225 14,0 C 6,2 km/h (2 Bft)
08.07.2015 08:05 17,0 C 16,7 C 83 % 1008,9 hPa 0,0 mm 4,1 km/h (1 Bft) SW 225 14,1 C 4,1 km/h (1 Bft)
08.07.2015 08:10 17,2 C 17,3 C 81 % 1008,9 hPa 0,0 mm 1,6 km/h (1 Bft) S 180 13,9 C 3,4 km/h (1 Bft)
08.07.2015 08:15 17,3 C 17,5 C 81 % 1008,9 hPa 0,0 mm 3,1 km/h (1 Bft) S-SO 157 14,0 C 14,8 km/h (3 Bft)
08.07.2015 08:20 17,4 C 17,5 C 80 % 1008,9 hPa 0,0 mm 6,7 km/h (2 Bft) SW 225 13,9 C 7,5 km/h (2 Bft)
08.07.2015 08:25 17,5 C 17,6 C 80 % 1008,9 hPa 0,0 mm 7,0 km/h (2 Bft) S 180 14,0 C 4,1 km/h (1 Bft)
08.07.2015 08:30 17,7 C 18,1 C 79 % 1008,7 hPa 0,0 mm 5,2 km/h (1 Bft) W 270 14,0 C 4,7 km/h (1 Bft)
08.07.2015 08:35 18,0 C 19,0 C 79 % 1008,7 hPa 0,0 mm 3,9 km/h (1 Bft) W 270 14,3 C 4,7 km/h (1 Bft)
08.07.2015 08:40 18,7 C 21,6 C 79 % 1008,7 hPa 0,0 mm 2,8 km/h (1 Bft) SW 225 15,0 C 3,6 km/h (1 Bft)
08.07.2015 08:45 18,9 C 22,0 C 78 % 1008,7 hPa 0,0 mm 3,1 km/h (1 Bft) NW 315 15,0 C 5,2 km/h (1 Bft)
08.07.2015 08:50 18,7 C 21,3 C 77 % 1008,3 hPa 0,0 mm 3,9 km/h (1 Bft) SW 225 14,6 C 0,0 km/h (0 Bft)
08.07.2015 08:55 18,7 C 20,9 C 77 % 1008,3 hPa 0,0 mm 2,8 km/h (1 Bft) W-SW 247 14,6 C 2,8 km/h (1 Bft)
08.07.2015 09:00 18,7 C 20,8 C 77 % 1008,3 hPa 0,0 mm 3,1 km/h (1 Bft) W-SW 247 14,6 C 11,1 km/h (2 Bft)
08.07.2015 09:05 18,7 C 20,6 C 76 % 1008,3 hPa 0,0 mm 4,4 km/h (1 Bft) S-SW 202 14,4 C 11,7 km/h (2 Bft)
08.07.2015 09:10 18,7 C 20,2 C 76 % 1008,9 hPa 0,0 mm 5,2 km/h (1 Bft) W-SW 247 14,4 C 4,7 km/h (1 Bft)
08.07.2015 09:15 18,7 C 20,0 C 75 % 1008,9 hPa 0,0 mm 4,4 km/h (1 Bft) W 270 14,2 C 6,2 km/h (2 Bft)
08.07.2015 09:20 18,7 C 19,9 C 75 % 1008,9 hPa 0,0 mm 4,1 km/h (1 Bft) S-SO 157 14,2 C 4,1 km/h (1 Bft)
08.07.2015 09:25 18,7 C 20,0 C 76 % 1008,9 hPa 0,0 mm 3,1 km/h (1 Bft) SW 225 14,4 C 6,7 km/h (2 Bft)
08.07.2015 09:30 18,7 C 20,0 C 76 % 1009,2 hPa 0,0 mm 1,0 km/h (0 Bft) S-SO 157 14,4 C 0,0 km/h (0 Bft)
08.07.2015 09:35 18,8 C 20,1 C 76 % 1009,2 hPa 0,0 mm 0,8 km/h (0 Bft) O-SO 112 14,5 C 0,0 km/h (0 Bft)
08.07.2015 09:40 18,8 C 20,2 C 76 % 1009,2 hPa 0,0 mm 1,3 km/h (1 Bft) W 270 14,5 C 2,8 km/h (1 Bft)
08.07.2015 09:45 18,8 C 20,4 C 76 % 1009,2 hPa 0,0 mm 3,1 km/h (1 Bft) NW 315 14,5 C 7,8 km/h (2 Bft)
08.07.2015 09:50 18,8 C 20,3 C 75 % 1008,8 hPa 0,0 mm 6,5 km/h (2 Bft) NW 315 14,3 C 8,8 km/h (2 Bft)
08.07.2015 09:55 18,7 C 20,0 C 74 % 1008,8 hPa 0,0 mm 9,3 km/h (2 Bft) S-SO 157 14,0 C 23,6 km/h (4 Bft)
08.07.2015 10:00 18,4 C 19,5 C 74 % 1008,8 hPa 0,0 mm 10,1 km/h (2 Bft) W 270 13,7 C 21,2 km/h (4 Bft)
08.07.2015 10:05 18,4 C 19,3 C 74 % 1008,8 hPa 0,0 mm 10,6 km/h (2 Bft) W 270 13,7 C 8,5 km/h (2 Bft)
08.07.2015 10:10 18,3 C 19,3 C 75 % 1009,2 hPa 0,0 mm 9,3 km/h (2 Bft) W 270 13,8 C 18,6 km/h (3 Bft)
08.07.2015 10:15 18,2 C 19,2 C 75 % 1009,2 hPa 0,0 mm 8,5 km/h (2 Bft) W-SW 247 13,7 C 7,3 km/h (2 Bft)
08.07.2015 10:20 18,4 C 19,5 C 75 % 1009,2 hPa 0,0 mm 7,5 km/h (2 Bft) N-NO 22 13,9 C 11,1 km/h (2 Bft)
08.07.2015 10:25 18,2 C 19,3 C 75 % 1009,2 hPa 0,0 mm 6,5 km/h (2 Bft) S 180 13,7 C 7,3 km/h (2 Bft)
08.07.2015 10:30 17,8 C 18,8 C 76 % 1009,5 hPa 0,0 mm 8,0 km/h (2 Bft) W-NW 292 13,5 C 24,1 km/h (4 Bft)
08.07.2015 10:35 17,7 C 18,4 C 76 % 1009,5 hPa 0,0 mm 7,3 km/h (2 Bft) S-SO 157 13,4 C 15,8 km/h (3 Bft)
08.07.2015 10:40 17,6 C 17,8 C 77 % 1009,5 hPa 0,0 mm 4,9 km/h (1 Bft) W-NW 292 13,5 C 9,3 km/h (2 Bft)
08.07.2015 10:45 17,7 C 17,9 C 77 % 1009,5 hPa 0,0 mm 5,4 km/h (1 Bft) W 270 13,6 C 7,3 km/h (2 Bft)
08.07.2015 10:51 17,7 C 18,2 C 77 % 1009,4 hPa 0,0 mm 4,9 km/h (1 Bft) SW 225 13,6 C 0,0 km/h (0 Bft)
08.07.2015 10:55 17,7 C 18,2 C 77 % 1009,4 hPa 0,0 mm 4,9 km/h (1 Bft) SW 225 13,6 C 0,0 km/h (0 Bft)
08.07.2015 11:00 17,4 C 18,0 C 77 % 1009,4 hPa 0,0 mm 4,4 km/h (1 Bft) S 180 13,3 C 6,7 km/h (2 Bft)
08.07.2015 11:05 17,3 C 17,8 C 78 % 1009,4 hPa 0,0 mm 4,1 km/h (1 Bft) SW 225 13,4 C 4,7 km/h (1 Bft)
08.07.2015 11:10 17,1 C 17,5 C 78 % 1009,8 hPa 0,0 mm 3,9 km/h (1 Bft) W-NW 292 13,2 C 6,7 km/h (2 Bft)
08.07.2015 11:15 17,1 C 17,3 C 78 % 1009,8 hPa 0,0 mm 4,4 km/h (1 Bft) NW 315 13,2 C 7,0 km/h (2 Bft)
08.07.2015 11:20 17,1 C 17,1 C 77 % 1009,8 hPa 0,0 mm 6,0 km/h (2 Bft) SW 225 13,0 C 8,8 km/h (2 Bft)
08.07.2015 11:25 17,1 C 17,1 C 78 % 1009,8 hPa 0,0 mm 7,0 km/h (2 Bft) NW 315 13,2 C 10,4 km/h (2 Bft)
08.07.2015 11:30 17,3 C 17,6 C 78 % 1009,2 hPa 0,0 mm 8,8 km/h (2 Bft) W-SW 247 13,4 C 6,2 km/h (2 Bft)
08.07.2015 11:35 17,5 C 18,1 C 78 % 1009,2 hPa 0,0 mm 8,8 km/h (2 Bft) NW 315 13,6 C 10,9 km/h (2 Bft)
08.07.2015 11:40 17,6 C 18,6 C 78 % 1009,2 hPa 0,0 mm 8,0 km/h (2 Bft) W 270 13,7 C 10,1 km/h (2 Bft)
08.07.2015 11:45 17,7 C 18,9 C 78 % 1009,2 hPa 0,0 mm 8,0 km/h (2 Bft) W 270 13,8 C 4,9 km/h (1 Bft)
08.07.2015 11:50 18,0 C 19,7 C 78 % 1009,2 hPa 0,0 mm 8,0 km/h (2 Bft) W-SW 247 14,1 C 15,3 km/h (3 Bft)
08.07.2015 11:55 18,0 C 19,4 C 78 % 1009,2 hPa 0,0 mm 8,8 km/h (2 Bft) W 270 14,1 C 18,1 km/h (3 Bft)
08.07.2015 12:00 17,7 C 18,3 C 78 % 1009,2 hPa 0,0 mm 9,6 km/h (2 Bft) NW 315 13,8 C 4,4 km/h (1 Bft)
08.07.2015 12:05 17,6 C 18,0 C 78 % 1009,2 hPa 0,0 mm 8,0 km/h (2 Bft) W 270 13,7 C 4,4 km/h (1 Bft)
08.07.2015 12:10 17,5 C 18,0 C 78 % 1009,4 hPa 0,0 mm 7,3 km/h (2 Bft) S-SO 157 13,6 C 4,9 km/h (1 Bft)
08.07.2015 12:15 17,7 C 18,2 C 78 % 1009,4 hPa 0,0 mm 6,7 km/h (2 Bft) W-SW 247 13,8 C 6,5 km/h (2 Bft)
08.07.2015 12:20 17,7 C 18,2 C 78 % 1009,4 hPa 0,0 mm 4,7 km/h (1 Bft) W-SW 247 13,8 C 5,7 km/h (1 Bft)
08.07.2015 12:25 17,9 C 18,4 C 78 % 1009,4 hPa 0,0 mm 3,9 km/h (1 Bft) N-NO 22 14,0 C 9,1 km/h (2 Bft)
08.07.2015 12:30 17,9 C 18,3 C 78 % 1009,6 hPa 0,0 mm 5,7 km/h (1 Bft) W-NW 292 14,0 C 9,3 km/h (2 Bft)
08.07.2015 12:35 17,8 C 18,4 C 78 % 1009,6 hPa 0,0 mm 7,0 km/h (2 Bft) N-NW 337 13,9 C 4,9 km/h (1 Bft)
08.07.2015 12:40 17,8 C 18,0 C 78 % 1009,6 hPa 0,0 mm 7,0 km/h (2 Bft) W-NW 292 13,9 C 12,7 km/h (3 Bft)
08.07.2015 12:45 17,8 C 17,7 C 78 % 1009,6 hPa 0,0 mm 7,8 km/h (2 Bft) N 360 13,9 C 11,9 km/h (2 Bft)
08.07.2015 12:50 16,6 C 16,5 C 78 % 1009,8 hPa 0,7 mm 9,6 km/h (2 Bft) NW 315 12,7 C 8,8 km/h (2 Bft)
08.07.2015 12:55 15,8 C 15,7 C 81 % 1009,8 hPa 0,0 mm 10,1 km/h (2 Bft) NW 315 12,5 C 23,6 km/h (4 Bft)
08.07.2015 13:00 15,3 C 15,1 C 81 % 1009,8 hPa 0,0 mm 11,4 km/h (2 Bft) W 270 12,1 C 3,6 km/h (1 Bft)
08.07.2015 13:05 15,4 C 15,1 C 82 % 1009,8 hPa 0,0 mm 10,6 km/h (2 Bft) W 270 12,3 C 9,1 km/h (2 Bft)
08.07.2015 13:10 15,4 C 15,4 C 81 % 1010,1 hPa 0,0 mm 8,3 km/h (2 Bft) W-NW 292 12,2 C 14,2 km/h (3 Bft)
08.07.2015 13:15 15,4 C 15,3 C 81 % 1010,1 hPa 0,0 mm 8,3 km/h (2 Bft) W 270 12,2 C 6,2 km/h (2 Bft)
08.07.2015 13:20 15,5 C 15,5 C 81 % 1010,1 hPa 0,0 mm 7,3 km/h (2 Bft) W-NW 292 12,3 C 12,7 km/h (3 Bft)
08.07.2015 13:25 15,5 C 15,7 C 81 % 1010,1 hPa 0,0 mm 6,2 km/h (2 Bft) NW 315 12,3 C 5,4 km/h (1 Bft)
08.07.2015 13:30 15,4 C 15,6 C 81 % 1010,0 hPa 0,0 mm 6,0 km/h (2 Bft) W-SW 247 12,2 C 6,2 km/h (2 Bft)
08.07.2015 13:31 15,4 C 15,6 C 81 % 1010,0 hPa 0,0 mm 5,4 km/h (1 Bft) SW 225 12,2 C 4,4 km/h (1 Bft)
08.07.2015 13:35 15,4 C 15,6 C 81 % 1010,0 hPa 0,0 mm 5,4 km/h (1 Bft) SW 225 12,2 C 4,4 km/h (1 Bft)
08.07.2015 13:40 15,3 C 15,4 C 81 % 1010,0 hPa 0,0 mm 4,7 km/h (1 Bft) NW 315 12,1 C 2,8 km/h (1 Bft)
08.07.2015 13:45 15,3 C 15,3 C 81 % 1010,0 hPa 0,0 mm 3,9 km/h (1 Bft) W-SW 247 12,1 C 7,0 km/h (2 Bft)
08.07.2015 13:50 15,1 C 15,1 C 81 % 1010,2 hPa 0,0 mm 1,6 km/h (1 Bft) W 270 11,9 C 2,6 km/h (1 Bft)
08.07.2015 13:55 15,1 C 15,0 C 82 % 1010,2 hPa 0,0 mm 2,3 km/h (1 Bft) NW 315 12,0 C 5,2 km/h (1 Bft)
08.07.2015 14:00 15,0 C 15,0 C 82 % 1010,2 hPa 0,0 mm 2,6 km/h (1 Bft) W 270 12,0 C 3,4 km/h (1 Bft)
08.07.2015 14:05 15,0 C 14,9 C 82 % 1010,2 hPa 0,0 mm 2,6 km/h (1 Bft) SO 135 12,0 C 6,2 km/h (2 Bft)
08.07.2015 14:10 15,0 C 14,8 C 82 % 1010,1 hPa 0,0 mm 1,8 km/h (1 Bft) S 180 12,0 C 0,0 km/h (0 Bft)
08.07.2015 14:15 15,0 C 14,8 C 82 % 1010,1 hPa 0,0 mm 1,3 km/h (1 Bft) NW 315 12,0 C 0,0 km/h (0 Bft)
08.07.2015 14:20 14,9 C 14,9 C 82 % 1010,1 hPa 0,0 mm 0,5 km/h (0 Bft) SW 225 11,9 C 0,0 km/h (0 Bft)
08.07.2015 14:25 14,9 C 15,0 C 82 % 1010,1 hPa 0,0 mm 1,3 km/h (1 Bft) S-SW 202 11,9 C 9,1 km/h (2 Bft)
08.07.2015 14:30 14,9 C 15,1 C 82 % 1010,1 hPa 0,7 mm 3,1 km/h (1 Bft) NW 315 11,9 C 5,4 km/h (1 Bft)
08.07.2015 14:35 15,1 C 15,3 C 82 % 1010,1 hPa 0,0 mm 3,4 km/h (1 Bft) W-SW 247 12,0 C 2,6 km/h (1 Bft)
08.07.2015 14:40 15,3 C 15,6 C 83 % 1010,1 hPa 0,0 mm 2,1 km/h (1 Bft) W-SW 247 12,4 C 7,0 km/h (2 Bft)
08.07.2015 14:45 15,4 C 15,7 C 83 % 1010,1 hPa 0,0 mm 1,6 km/h (1 Bft) NW 315 12,5 C 2,6 km/h (1 Bft)
08.07.2015 14:50 15,4 C 15,7 C 83 % 1010,1 hPa 0,0 mm 2,6 km/h (1 Bft) W 270 12,5 C 6,5 km/h (2 Bft)
08.07.2015 14:55 15,5 C 15,7 C 83 % 1010,1 hPa 0,0 mm 3,9 km/h (1 Bft) W-NW 292 12,6 C 4,9 km/h (1 Bft)
08.07.2015 15:00 15,9 C 16,7 C 83 % 1010,1 hPa 0,0 mm 3,9 km/h (1 Bft) W-NW 292 13,0 C 7,8 km/h (2 Bft)
08.07.2015 15:05 16,0 C 16,6 C 82 % 1010,1 hPa 0,0 mm 4,7 km/h (1 Bft) NW 315 12,9 C 11,7 km/h (2 Bft)
08.07.2015 15:10 16,0 C 16,4 C 82 % 1009,9 hPa 0,0 mm 6,0 km/h (2 Bft) NW 315 12,9 C 4,7 km/h (1 Bft)
08.07.2015 15:15 15,9 C 16,2 C 82 % 1009,9 hPa 0,0 mm 6,2 km/h (2 Bft) W-SW 247 12,8 C 4,4 km/h (1 Bft)
08.07.2015 15:20 15,8 C 15,8 C 82 % 1009,9 hPa 0,0 mm 6,5 km/h (2 Bft) SW 225 12,7 C 8,8 km/h (2 Bft)
08.07.2015 15:25 15,8 C 15,8 C 82 % 1009,9 hPa 0,0 mm 5,2 km/h (1 Bft) S 180 12,7 C 0,0 km/h (0 Bft)
08.07.2015 15:30 15,7 C 15,6 C 82 % 1010,0 hPa 0,0 mm 3,1 km/h (1 Bft) SW 225 12,6 C 7,0 km/h (2 Bft)
08.07.2015 15:35 15,6 C 15,5 C 82 % 1010,0 hPa 0,0 mm 2,6 km/h (1 Bft) NW 315 12,5 C 0,0 km/h (0 Bft)
08.07.2015 15:40 15,6 C 15,4 C 83 % 1010,0 hPa 0,0 mm 2,8 km/h (1 Bft) W 270 12,7 C 0,0 km/h (0 Bft)
08.07.2015 15:45 15,6 C 15,5 C 82 % 1010,0 hPa 0,0 mm 2,3 km/h (1 Bft) S-SO 157 12,5 C 4,4 km/h (1 Bft)
08.07.2015 15:50 15,6 C 15,6 C 83 % 1010,1 hPa 0,0 mm 2,3 km/h (1 Bft) SW 225 12,7 C 8,8 km/h (2 Bft)
08.07.2015 15:55 15,6 C 15,5 C 83 % 1010,1 hPa 0,0 mm 1,8 km/h (1 Bft) W 270 12,7 C 0,0 km/h (0 Bft)
08.07.2015 16:00 15,7 C 15,6 C 83 % 1010,1 hPa 0,0 mm 1,3 km/h (1 Bft) SW 225 12,8 C 0,0 km/h (0 Bft)
08.07.2015 16:05 15,7 C 15,6 C 83 % 1010,1 hPa 0,0 mm 1,3 km/h (1 Bft) S 180 12,8 C 3,6 km/h (1 Bft)
08.07.2015 16:10 15,7 C 15,7 C 83 % 1010,0 hPa 0,0 mm 2,8 km/h (1 Bft) SW 225 12,8 C 0,0 km/h (0 Bft)
08.07.2015 16:15 15,7 C 15,7 C 83 % 1010,0 hPa 0,0 mm 2,8 km/h (1 Bft) NW 315 12,8 C 3,1 km/h (1 Bft)
08.07.2015 16:20 15,8 C 15,8 C 83 % 1010,0 hPa 0,0 mm 2,8 km/h (1 Bft) S-SO 157 12,9 C 4,7 km/h (1 Bft)
08.07.2015 16:25 16,1 C 16,7 C 82 % 1010,0 hPa 0,0 mm 2,6 km/h (1 Bft) W-SW 247 13,0 C 0,0 km/h (0 Bft)
08.07.2015 16:30 16,6 C 17,7 C 82 % 1009,8 hPa 0,0 mm 3,4 km/h (1 Bft) W-SW 247 13,5 C 4,7 km/h (1 Bft)
08.07.2015 16:35 16,8 C 17,9 C 82 % 1009,8 hPa 0,0 mm 4,4 km/h (1 Bft) NW 315 13,7 C 7,5 km/h (2 Bft)
08.07.2015 16:40 16,8 C 17,8 C 81 % 1009,8 hPa 0,0 mm 5,7 km/h (1 Bft) W 270 13,5 C 10,9 km/h (2 Bft)
08.07.2015 16:45 16,7 C 17,5 C 81 % 1009,8 hPa 0,0 mm 6,2 km/h (2 Bft) W-NW 292 13,4 C 10,6 km/h (2 Bft)
08.07.2015 16:50 16,7 C 17,2 C 81 % 1010,1 hPa 0,0 mm 5,4 km/h (1 Bft) W-SW 247 13,4 C 4,4 km/h (1 Bft)
08.07.2015 16:55 16,7 C 17,1 C 80 % 1010,1 hPa 0,0 mm 6,7 km/h (2 Bft) NW 315 13,2 C 19,4 km/h (3 Bft)
08.07.2015 17:00 16,7 C 17,2 C 80 % 1010,1 hPa 0,0 mm 6,5 km/h (2 Bft) W 270 13,2 C 0,0 km/h (0 Bft)
08.07.2015 17:05 16,7 C 17,3 C 80 % 1010,1 hPa 0,0 mm 4,7 km/h (1 Bft) W-NW 292 13,2 C 6,0 km/h (2 Bft)
08.07.2015 17:10 16,8 C 17,4 C 80 % 1010,2 hPa 0,0 mm 1,8 km/h (1 Bft) W-NW 292 13,3 C 0,0 km/h (0 Bft)
08.07.2015 17:15 16,7 C 17,4 C 80 % 1010,2 hPa 0,0 mm 2,1 km/h (1 Bft) S 180 13,2 C 3,4 km/h (1 Bft)
08.07.2015 17:20 16,7 C 17,5 C 79 % 1010,2 hPa 0,0 mm 3,9 km/h (1 Bft) S-SO 157 13,0 C 5,7 km/h (1 Bft)
08.07.2015 17:25 16,7 C 17,5 C 78 % 1010,2 hPa 0,0 mm 5,2 km/h (1 Bft) S 180 12,8 C 9,8 km/h (2 Bft)
08.07.2015 17:30 16,6 C 17,4 C 77 % 1010,1 hPa 0,0 mm 4,7 km/h (1 Bft) S-SW 202 12,5 C 8,0 km/h (2 Bft)
08.07.2015 17:35 16,7 C 17,5 C 77 % 1010,1 hPa 0,0 mm 4,9 km/h (1 Bft) S-SO 157 12,6 C 4,9 km/h (1 Bft)
08.07.2015 17:40 16,7 C 17,5 C 76 % 1010,1 hPa 0,0 mm 3,6 km/h (1 Bft) W-NW 292 12,4 C 2,8 km/h (1 Bft)
08.07.2015 17:45 16,7 C 17,5 C 76 % 1010,1 hPa 0,0 mm 2,6 km/h (1 Bft) S-SW 202 12,4 C 4,4 km/h (1 Bft)
08.07.2015 17:50 16,8 C 17,8 C 76 % 1010,2 hPa 0,0 mm 2,6 km/h (1 Bft) W-NW 292 12,5 C 3,1 km/h (1 Bft)
08.07.2015 17:55 17,0 C 18,0 C 76 % 1010,2 hPa 0,0 mm 2,8 km/h (1 Bft) S 180 12,7 C 0,0 km/h (0 Bft)
08.07.2015 18:00 17,0 C 18,1 C 75 % 1010,2 hPa 0,0 mm 2,8 km/h (1 Bft) W 270 12,5 C 0,0 km/h (0 Bft)
08.07.2015 18:05 16,9 C 18,1 C 75 % 1010,2 hPa 0,0 mm 2,3 km/h (1 Bft) S-SW 202 12,4 C 6,0 km/h (2 Bft)
08.07.2015 18:10 17,0 C 18,2 C 75 % 1009,9 hPa 0,0 mm 1,0 km/h (0 Bft) SW 225 12,5 C 0,0 km/h (0 Bft)
08.07.2015 18:15 17,0 C 18,3 C 75 % 1009,9 hPa 0,0 mm 1,6 km/h (1 Bft) W-SW 247 12,5 C 3,6 km/h (1 Bft)
08.07.2015 18:20 17,1 C 18,3 C 75 % 1009,9 hPa 0,0 mm 1,8 km/h (1 Bft) W-NW 292 12,6 C 7,0 km/h (2 Bft)
08.07.2015 18:25 17,1 C 18,5 C 75 % 1009,9 hPa 0,0 mm 2,1 km/h (1 Bft) W-SW 247 12,6 C 3,1 km/h (1 Bft)
08.07.2015 18:30 17,2 C 18,5 C 74 % 1010,1 hPa 0,0 mm 3,4 km/h (1 Bft) S-SW 202 12,5 C 0,0 km/h (0 Bft)
08.07.2015 18:35 17,2 C 18,5 C 73 % 1010,1 hPa 0,0 mm 3,6 km/h (1 Bft) S 180 12,3 C 4,9 km/h (1 Bft)
08.07.2015 18:40 17,3 C 18,7 C 73 % 1010,1 hPa 0,0 mm 5,7 km/h (1 Bft) SW 225 12,4 C 22,5 km/h (4 Bft)
08.07.2015 18:45 17,4 C 18,9 C 72 % 1010,1 hPa 0,0 mm 6,2 km/h (2 Bft) SW 225 12,3 C 4,9 km/h (1 Bft)
08.07.2015 18:50 17,6 C 19,8 C 72 % 1010,1 hPa 0,0 mm 4,9 km/h (1 Bft) S 180 12,5 C 3,4 km/h (1 Bft)
08.07.2015 18:55 17,7 C 20,2 C 71 % 1010,1 hPa 0,0 mm 3,9 km/h (1 Bft) S 180 12,4 C 7,5 km/h (2 Bft)
08.07.2015 19:00 18,0 C 21,6 C 71 % 1010,1 hPa 0,0 mm 4,4 km/h (1 Bft) S 180 12,7 C 6,2 km/h (2 Bft)
08.07.2015 19:05 18,0 C 21,5 C 71 % 1010,1 hPa 0,0 mm 3,4 km/h (1 Bft) NW 315 12,7 C 7,5 km/h (2 Bft)
08.07.2015 19:10 18,0 C 21,6 C 70 % 1010,1 hPa 0,0 mm 4,7 km/h (1 Bft) SW 225 12,4 C 6,5 km/h (2 Bft)
08.07.2015 19:15 17,9 C 21,0 C 70 % 1010,1 hPa 0,0 mm 5,4 km/h (1 Bft) W-SW 247 12,3 C 4,1 km/h (1 Bft)
08.07.2015 19:20 17,8 C 19,9 C 70 % 1010,1 hPa 0,0 mm 4,9 km/h (1 Bft) W-NW 292 12,3 C 3,6 km/h (1 Bft)
08.07.2015 19:25 17,8 C 19,6 C 69 % 1010,1 hPa 0,0 mm 6,0 km/h (2 Bft) W-SW 247 12,0 C 26,2 km/h (4 Bft)
08.07.2015 19:30 17,9 C 19,8 C 69 % 1010,1 hPa 0,0 mm 6,0 km/h (2 Bft) NW 315 12,1 C 8,5 km/h (2 Bft)
08.07.2015 19:35 17,8 C 19,3 C 69 % 1010,1 hPa 0,0 mm 4,9 km/h (1 Bft) SW 225 12,0 C 0,0 km/h (0 Bft)
08.07.2015 19:36 17,7 C 19,0 C 69 % 1010,1 hPa 0,0 mm 4,4 km/h (1 Bft) S 180 11,9 C 10,1 km/h (2 Bft)
08.07.2015 19:37 17,7 C 19,0 C 69 % 1010,1 hPa 0,0 mm 4,4 km/h (1 Bft) S 180 11,9 C 10,1 km/h (2 Bft)
08.07.2015 19:40 17,7 C 19,0 C 69 % 1010,1 hPa 0,0 mm 4,4 km/h (1 Bft) S 180 11,9 C 10,1 km/h (2 Bft)
08.07.2015 19:45 17,7 C 19,0 C 69 % 1010,1 hPa 0,0 mm 4,4 km/h (1 Bft) W-SW 247 11,9 C 9,8 km/h (2 Bft)
08.07.2015 19:50 17,6 C 18,8 C 69 % 1010,4 hPa 0,0 mm 4,7 km/h (1 Bft) S 180 11,8 C 0,0 km/h (0 Bft)
08.07.2015 19:55 17,4 C 18,4 C 69 % 1010,4 hPa 0,0 mm 3,6 km/h (1 Bft) SW 225 11,7 C 6,7 km/h (2 Bft)
08.07.2015 20:00 17,3 C 17,9 C 69 % 1010,4 hPa 0,0 mm 3,9 km/h (1 Bft) W-SW 247 11,6 C 0,0 km/h (0 Bft)
08.07.2015 20:05 17,2 C 17,8 C 69 % 1010,4 hPa 0,0 mm 4,1 km/h (1 Bft) SW 225 11,5 C 0,0 km/h (0 Bft)
08.07.2015 20:10 17,2 C 18,0 C 69 % 1010,8 hPa 0,0 mm 2,3 km/h (1 Bft) SO 135 11,5 C 4,4 km/h (1 Bft)
08.07.2015 20:15 17,2 C 18,0 C 69 % 1010,8 hPa 0,0 mm 2,8 km/h (1 Bft) SW 225 11,5 C 3,4 km/h (1 Bft)
08.07.2015 20:20 17,2 C 18,1 C 69 % 1010,8 hPa 0,0 mm 3,1 km/h (1 Bft) S 180 11,5 C 6,5 km/h (2 Bft)
08.07.2015 20:25 17,2 C 18,5 C 69 % 1010,8 hPa 0,0 mm 2,1 km/h (1 Bft) N 360 11,5 C 2,8 km/h (1 Bft)
08.07.2015 20:30 17,1 C 18,5 C 69 % 1010,7 hPa 0,0 mm 2,8 km/h (1 Bft) SO 135 11,4 C 8,5 km/h (2 Bft)
08.07.2015 20:35 16,9 C 18,2 C 68 % 1010,7 hPa 0,0 mm 4,7 km/h (1 Bft) SW 225 11,0 C 7,0 km/h (2 Bft)
08.07.2015 20:40 16,6 C 17,4 C 70 % 1010,7 hPa 0,0 mm 5,2 km/h (1 Bft) S 180 11,1 C 4,7 km/h (1 Bft)
08.07.2015 20:45 16,4 C 17,0 C 70 % 1010,7 hPa 0,0 mm 4,1 km/h (1 Bft) S 180 10,9 C 4,9 km/h (1 Bft)
08.07.2015 20:50 16,2 C 16,5 C 70 % 1010,8 hPa 0,0 mm 2,8 km/h (1 Bft) S 180 10,7 C 2,8 km/h (1 Bft)
08.07.2015 20:55 16,0 C 16,3 C 71 % 1010,8 hPa 0,0 mm 2,1 km/h (1 Bft) S-SO 157 10,7 C 3,1 km/h (1 Bft)
08.07.2015 21:00 16,0 C 16,1 C 71 % 1010,8 hPa 0,0 mm 3,1 km/h (1 Bft) W-SW 247 10,7 C 0,0 km/h (0 Bft)
08.07.2015 21:05 15,9 C 16,0 C 71 % 1010,8 hPa 0,0 mm 3,6 km/h (1 Bft) W-SW 247 10,6 C 4,7 km/h (1 Bft)
08.07.2015 21:10 15,6 C 15,8 C 72 % 1011,0 hPa 0,0 mm 2,8 km/h (1 Bft) W-SW 247 10,6 C 5,7 km/h (1 Bft)
08.07.2015 21:15 15,6 C 15,6 C 72 % 1011,0 hPa 0,0 mm 3,9 km/h (1 Bft) SW 225 10,6 C 5,7 km/h (1 Bft)
08.07.2015 21:20 15,7 C 15,6 C 71 % 1011,0 hPa 0,0 mm 4,9 km/h (1 Bft) SW 225 10,5 C 8,0 km/h (2 Bft)
08.07.2015 21:25 15,7 C 15,6 C 71 % 1011,0 hPa 0,0 mm 4,1 km/h (1 Bft) W-SW 247 10,5 C 7,0 km/h (2 Bft)
08.07.2015 21:30 15,5 C 15,4 C 71 % 1011,1 hPa 0,0 mm 3,4 km/h (1 Bft) SW 225 10,3 C 4,7 km/h (1 Bft)
08.07.2015 21:35 15,6 C 15,5 C 70 % 1011,1 hPa 0,0 mm 3,1 km/h (1 Bft) S 180 10,1 C 5,2 km/h (1 Bft)
08.07.2015 21:40 15,7 C 15,6 C 69 % 1011,1 hPa 0,0 mm 3,9 km/h (1 Bft) S 180 10,0 C 9,8 km/h (2 Bft)
08.07.2015 21:45 15,7 C 15,6 C 69 % 1011,1 hPa 0,0 mm 5,2 km/h (1 Bft) SW 225 10,0 C 7,0 km/h (2 Bft)
08.07.2015 21:50 15,5 C 15,5 C 69 % 1011,3 hPa 0,0 mm 5,7 km/h (1 Bft) S-SW 202 9,8 C 11,4 km/h (2 Bft)
08.07.2015 21:55 15,6 C 15,5 C 69 % 1011,3 hPa 0,0 mm 5,7 km/h (1 Bft) S-SW 202 9,9 C 8,5 km/h (2 Bft)
08.07.2015 22:00 15,5 C 15,5 C 69 % 1011,3 hPa 0,0 mm 6,2 km/h (2 Bft) W 270 9,8 C 0,0 km/h (0 Bft)
08.07.2015 22:05 15,4 C 15,3 C 69 % 1011,3 hPa 0,0 mm 4,9 km/h (1 Bft) SW 225 9,7 C 7,5 km/h (2 Bft)
08.07.2015 22:10 15,4 C 15,3 C 68 % 1011,4 hPa 0,0 mm 4,7 km/h (1 Bft) W-SW 247 9,5 C 5,2 km/h (1 Bft)
08.07.2015 22:15 15,3 C 15,2 C 68 % 1011,4 hPa 0,0 mm 5,2 km/h (1 Bft) S 180 9,4 C 6,7 km/h (2 Bft)
08.07.2015 22:20 15,3 C 15,2 C 68 % 1011,4 hPa 0,0 mm 3,9 km/h (1 Bft) SW 225 9,4 C 5,2 km/h (1 Bft)
08.07.2015 22:25 15,4 C 15,3 C 68 % 1011,4 hPa 0,0 mm 3,6 km/h (1 Bft) S 180 9,5 C 2,8 km/h (1 Bft)
08.07.2015 22:30 15,4 C 15,3 C 68 % 1011,8 hPa 0,0 mm 3,6 km/h (1 Bft) SW 225 9,5 C 6,0 km/h (2 Bft)
08.07.2015 22:35 15,4 C 15,3 C 68 % 1011,8 hPa 0,0 mm 3,4 km/h (1 Bft) W-SW 247 9,5 C 2,6 km/h (1 Bft)
08.07.2015 22:40 15,3 C 15,2 C 68 % 1011,8 hPa 0,0 mm 2,6 km/h (1 Bft) SW 225 9,4 C 6,7 km/h (2 Bft)
08.07.2015 22:45 15,2 C 15,2 C 68 % 1011,8 hPa 0,0 mm 2,1 km/h (1 Bft) SW 225 9,3 C 4,1 km/h (1 Bft)
08.07.2015 22:50 15,5 C 15,4 C 68 % 1011,8 hPa 0,0 mm 3,4 km/h (1 Bft) S 180 9,6 C 5,2 km/h (1 Bft)
08.07.2015 22:55 15,5 C 15,4 C 68 % 1011,8 hPa 0,0 mm 3,4 km/h (1 Bft) S 180 9,6 C 0,0 km/h (0 Bft)
08.07.2015 23:00 15,4 C 15,3 C 68 % 1011,8 hPa 0,0 mm 2,6 km/h (1 Bft) S 180 9,5 C 0,0 km/h (0 Bft)
08.07.2015 23:05 15,3 C 15,3 C 69 % 1011,8 hPa 0,0 mm 0,8 km/h (0 Bft) S 180 9,6 C 0,0 km/h (0 Bft)
08.07.2015 23:10 15,1 C 15,1 C 69 % 1012,0 hPa 0,0 mm 0,0 km/h (0 Bft) W-SW 247 9,5 C 0,0 km/h (0 Bft)
08.07.2015 23:15 15,1 C 15,1 C 69 % 1012,0 hPa 0,0 mm 0,3 km/h (0 Bft) S-SO 157 9,5 C 4,1 km/h (1 Bft)
08.07.2015 23:20 15,1 C 15,1 C 69 % 1012,0 hPa 0,0 mm 0,8 km/h (0 Bft) SW 225 9,5 C 0,0 km/h (0 Bft)
08.07.2015 23:25 15,2 C 15,1 C 69 % 1012,0 hPa 0,0 mm 1,0 km/h (0 Bft) W-SW 247 9,6 C 0,0 km/h (0 Bft)
08.07.2015 23:30 15,1 C 15,1 C 69 % 1011,9 hPa 0,0 mm 1,0 km/h (0 Bft) S-SW 202 9,5 C 4,4 km/h (1 Bft)
08.07.2015 23:35 15,2 C 15,1 C 69 % 1011,9 hPa 0,0 mm 1,6 km/h (1 Bft) S-SW 202 9,6 C 6,0 km/h (2 Bft)
08.07.2015 23:40 15,2 C 15,1 C 69 % 1011,9 hPa 0,0 mm 3,6 km/h (1 Bft) W-SW 247 9,6 C 13,5 km/h (3 Bft)
08.07.2015 23:45 15,2 C 15,2 C 68 % 1011,9 hPa 0,0 mm 4,4 km/h (1 Bft) SW 225 9,3 C 4,9 km/h (1 Bft)
08.07.2015 23:50 15,1 C 15,1 C 68 % 1012,1 hPa 0,0 mm 3,4 km/h (1 Bft) SW 225 9,2 C 6,0 km/h (2 Bft)
08.07.2015 23:55 15,2 C 15,1 C 68 % 1012,1 hPa 0,0 mm 2,3 km/h (1 Bft) W-SW 247 9,3 C 0,0 km/h (0 Bft)
_ Min-Zeit 14:30 14:15 02:20 00:05 - 23:10 - - 23:50 23:55
Minimum _ 14,9 C 14,8 C 62 % 1006,8 hPa - 0,0 km/h (0 Bft) - - 9,2 C 0,0 km/h (0 Bft)
_ Max-Zeit 02:10 02:15 07:20 23:55 03:10 13:00 - - 04:45 02:10
Maximum _ 22,0 C 22,4 C 89 % 1012,1 hPa 2,7 mm 11,4 km/h
W (2 Bft)
- - 15,5 C 30,8 km/h
W (5 Bft)
Durchschnitt _ 17,1 C 17,6 C 77 % 1009,6 hPa #11,7 mm 4,1 km/h (1 Bft) SW - 13,0 C 5,7 km/h (1 Bft)